Location: Newark
(48.3500°N, 1.3500°E)
Time: 05:40:08
(UTC+00:00)

N. Korean satellite - Visible Passes

Search period start: 22 October 2019 00:00
Search period end: 01 November 2019 00:00
Orbit: 455 x 508 km, 97.2° (Epoch: 20 October)

Date Brightness Start Highest point End Pass type
(mag) Time Alt. Az. Time Alt. Az. Time Alt. Az.
22 Oct 8.2 05:31:15 10° NNE 05:34:42 40° E 05:38:11 10° S visible
22 Oct 9.4 17:44:12 10° SSW 17:46:58 22° W 17:49:46 10° NW visible
23 Oct 9.5 05:06:24 10° NE 05:09:16 21° E 05:12:09 10° SE visible
23 Oct 7.9 17:18:14 10° S 17:21:31 44° W 17:24:54 10° NNW visible
24 Oct 10.4 04:42:23 10° ENE 04:43:44 12° E 04:45:06 10° ESE visible
25 Oct 7.1 05:48:34 10° NNE 05:52:13 67° ESE 05:55:53 10° S visible
25 Oct 10.0 18:02:33 10° SW 18:04:33 15° W 18:06:35 10° NW visible
26 Oct 8.6 05:23:28 10° NNE 05:26:49 33° E 05:30:12 10° SSE visible
26 Oct 9.0 17:36:02 10° SSW 17:39:02 27° W 17:42:06 10° NW visible
27 Oct 9.8 04:58:45 10° NE 05:01:21 18° E 05:03:58 10° SE visible
29 Oct 7.5 05:40:42 10° NNE 05:44:19 54° E 05:47:57 10° S visible
29 Oct 9.8 17:54:07 10° SW 17:56:34 18° W 17:59:03 10° NW visible
30 Oct 9.0 05:15:40 10° NE 05:18:54 28° E 05:22:07 10° SSE visible
30 Oct 8.5 17:27:52 10° SSW 17:31:04 34° W 17:34:20 10° NNW visible
31 Oct 10.0 04:51:08 10° NE 04:53:23 15° E 04:55:38 10° SE visible
